Flag for U.S.A. Weather past 2 weeks in St. Croix Falls, Wisconsin, U.S.A.

Now
17 °F

Passing clouds.


Feels Like: 17 °F
Forecast: 12 / 21 °F
Wind: No wind

Location: L O Simenstad Municipal Airport

Current Time: Dec 17, 2014 at 5:28:54 PM

Latest Report: Dec 17, 2014 at 4:55 PM


Visibility: 10 mi

Pressure: 30.34 "Hg

Humidity: 73%

Dew point: 10 °F

Location of St. Croix FallsLocation

Historic Weather in St. Croix Falls — Graph

°F

St. Croix Falls temperature yesterday

Maximum temperature yesterday: 32 °F (at 12:15 AM)
Minimum temperature yesterday: 17 °F (at 11:55 PM)
Average temperature yesterday: 23 °F

Past Weeks' High & Low Weather Summary

 TemperatureHumidityPressure
High48 °F (Dec 15, 4:15 AM)100% (Dec 2, 6:55 PM)30.69 "Hg (Dec 2, 6:55 PM)
Low4 °F (Dec 3, 11:15 PM)42% (Dec 4, 1:15 PM)29.72 "Hg (Dec 15, 1:35 PM)
Average28 °F90%30.20 "Hg
* Reported Dec 2 4:15 PM — Dec 17 4:15 PM, St. Croix Falls, Weather by CustomWeather, © 2014

Note: Actual official high and low records may vary slightly from our data, if they occured in-between our weather recording intervals... More about our weather records

Advertising

St. Croix Falls weather history for previous 24 hours

 ConditionsComfort  
Time TempWeatherWind HumidityBarometerVisibility
4:15 PM
Dec 17
18 °FPartly sunny.5 mph71%30.33 "Hg10 mi
3:55 PM18 °FScattered clouds.5 mph71%30.33 "Hg10 mi
3:35 PM19 °FPartly sunny.6 mph69%30.33 "Hg10 mi
3:15 PM19 °FOvercast.7 mph70%30.33 "Hg10 mi
2:55 PM18 °FPartly sunny.6 mph71%30.32 "Hg10 mi
2:35 PM17 °FScattered clouds.7 mph73%30.32 "Hg10 mi
2:15 PM18 °FPartly sunny.7 mph71%30.32 "Hg10 mi
1:55 PM18 °FOvercast.6 mph73%30.32 "Hg10 mi
1:35 PM18 °FLight snow. Overcast.5 mph75%30.32 "Hg10 mi
1:15 PM17 °FLight snow. Overcast.8 mph75%30.32 "Hg10 mi
12:55 PM17 °FLight snow. Overcast.5 mph77%30.32 "Hg7 mi
12:35 PM17 °FLight snow. Overcast.9 mph75%30.33 "Hg10 mi
12:15 PM17 °FOvercast.8 mph73%30.33 "Hg10 mi
11:55 AM17 °FOvercast.No wind74%30.33 "Hg10 mi
11:35 AM17 °FLight snow. Overcast.8 mph75%30.33 "Hg10 mi
11:15 AM17 °FLight snow. Overcast.8 mph75%30.33 "Hg7 mi
10:55 AM16 °FLight snow. Overcast.7 mph79%30.33 "Hg7 mi
10:35 AM16 °FLight snow. Overcast.5 mph81%30.33 "Hg5 mi
10:15 AM15 °FLight snow. Partly sunny.6 mph82%30.33 "Hg10 mi
9:55 AM15 °FSunny.6 mph84%30.33 "Hg10 mi
9:35 AM13 °FScattered clouds.5 mph86%30.33 "Hg10 mi
9:15 AM12 °FPartly sunny.6 mph87%30.33 "Hg10 mi
8:55 AM12 °FOvercast.6 mph89%30.33 "Hg10 mi
8:35 AM12 °FLight snow. Overcast.6 mph90%30.32 "Hg10 mi
8:15 AM12 °FOvercast.3 mph91%30.31 "Hg10 mi
7:55 AM11 °FOvercast.5 mph92%30.31 "Hg10 mi
7:35 AM12 °FLight snow. Overcast.7 mph91%30.31 "Hg7 mi
7:15 AM12 °FLight snow. Overcast.7 mph92%30.31 "Hg4 mi
6:55 AM12 °FLight snow. Overcast.7 mph92%30.31 "Hg2 mi
6:35 AM12 °FLight snow. Passing clouds.6 mph94%30.31 "Hg10 mi
6:15 AM12 °FPassing clouds.6 mph93%30.31 "Hg10 mi
5:55 AM13 °FPassing clouds.6 mph90%30.30 "Hg10 mi
5:35 AM14 °FMostly cloudy.5 mph90%30.30 "Hg10 mi
5:15 AM14 °FMostly cloudy.6 mph90%30.29 "Hg10 mi
4:55 AM14 °FMostly cloudy.6 mph89%30.29 "Hg10 mi
4:35 AM14 °FLight snow. Mostly cloudy.6 mph88%30.29 "Hg10 mi
4:15 AM14 °FOvercast.8 mph89%30.28 "Hg10 mi
3:55 AM14 °FOvercast.8 mph89%30.28 "Hg10 mi
3:35 AM14 °FPassing clouds.7 mph87%30.28 "Hg10 mi
3:15 AM14 °FClear.7 mph86%30.28 "Hg10 mi
2:55 AM14 °FLight snow. Clear.6 mph85%30.28 "Hg10 mi
2:35 AM15 °FPassing clouds.8 mph84%30.28 "Hg10 mi
2:15 AM15 °FOvercast.6 mph84%30.28 "Hg10 mi
1:55 AM15 °FPassing clouds.8 mph83%30.28 "Hg10 mi
1:35 AM15 °FPassing clouds.7 mph82%30.28 "Hg10 mi
1:15 AM15 °FPassing clouds.9 mph82%30.28 "Hg10 mi
12:55 AM15 °FPassing clouds.7 mph82%30.28 "Hg10 mi
12:35 AM16 °FPassing clouds.8 mph82%30.28 "Hg10 mi
12:15 AM17 °FOvercast.10 mph81%30.28 "Hg10 mi
11:55 PM
Dec 16
17 °FMostly cloudy.9 mph81%30.28 "Hg10 mi
11:15 PM18 °FOvercast.7 mph80%30.28 "Hg10 mi
10:55 PM19 °FOvercast.8 mph78%30.27 "Hg10 mi
10:35 PM19 °FOvercast.7 mph80%30.26 "Hg10 mi
10:15 PM19 °FOvercast.9 mph80%30.26 "Hg10 mi
9:35 PM20 °FMostly cloudy.7 mph78%30.26 "Hg10 mi
9:15 PM20 °FMostly cloudy.12 mph77%30.25 "Hg10 mi
8:55 PM20 °FMostly cloudy.8 mph80%30.25 "Hg10 mi
8:35 PM20 °FLight snow. Mostly cloudy.12 mph80%30.25 "Hg10 mi
8:15 PM20 °FMostly cloudy.9 mph81%30.25 "Hg10 mi
7:55 PM20 °FMostly cloudy.12 mph87%30.26 "Hg10 mi
7:35 PM20 °FMostly cloudy.9 mph87%30.25 "Hg10 mi
7:15 PM20 °FOvercast.10 mph86%30.24 "Hg10 mi
6:55 PM21 °FMostly cloudy.10 mph87%30.24 "Hg10 mi
6:35 PM21 °FMostly cloudy.9 mph88%30.24 "Hg10 mi
5:55 PM21 °FLight snow. Overcast.12 mph90%30.23 "Hg2 mi
5:35 PM21 °FLight snow. Overcast.9 mph89%30.23 "Hg10 mi
5:15 PM21 °FLight snow. Overcast.9 mph89%30.23 "Hg10 mi
Weather by CustomWeather, © 2014

See weather overviewHow to use our weather pages